EW7401 Weather Reports


time (UTC)temp
F
wind
direction
speed
knots
gust
knots
rain 1hr
in
rain 24hr
in
rain mn
in
humidity
%
barometer
mb
20220629025605 57 74 2.6 4.3 0.00 0.00 0.00 81 1014.8
20220629025105 57 64 1.7 4.3 0.00 0.00 0.00 80 1014.8
20220629024605 58 75 2.6 4.3 0.00 0.00 0.00 79 1014.8
20220629024105 58 67 2.6 4.3 0.00 0.00 0.00 79 1014.7
20220629023605 58 84 1.7 2.6 0.00 0.00 0.00 78 1014.6
20220629023105 58 69 1.7 4.3 0.00 0.00 0.00 78 1014.6
20220629022605 58 213 0.9 2.6 0.00 0.00 0.00 78 1014.5
20220629022105 58 206 1.7 2.6 0.00 0.00 0.00 77 1014.4
20220629021605 58 204 2.6 6.1 0.00 0.00 0.00 77 1014.4
20220629021106 58 180 4.3 7.0 0.00 0.00 0.00 76 1014.3
20220629020605 58 187 5.2 8.7 0.00 0.00 0.00 75 1014.3
20220629020105 59 191 5.2 8.7 0.00 0.00 0.00 73 1014.3
20220629015605 60 187 5.2 8.7 0.00 0.00 0.00 72 1014.3
20220629015106 60 193 3.5 6.1 0.00 0.00 0.00 72 1014.3
20220629014606 60 192 2.6 7.8 0.00 0.00 0.00 72 1014.3
20220629014105 61 202 2.6 6.1 0.00 0.00 0.00 71 1014.3
20220629013605 61 211 2.6 7.8 0.00 0.00 0.00 70 1014.3
20220629013106 61 206 2.6 6.1 0.00 0.00 0.00 70 1014.3
20220629012605 62 195 4.3 8.7 0.00 0.00 0.00 69 1014.3
20220629012106 62 189 3.5 8.7 0.00 0.00 0.00 72 1014.3
20220629011606 62 206 2.6 5.2 0.00 0.00 0.00 69 1014.3
20220629011105 62 202 1.7 5.2 0.00 0.00 0.00 70 1014.3
20220629010605 61 201 2.6 5.2 0.00 0.00 0.00 70 1014.3
20220629010106 61 205 2.6 5.2 0.00 0.00 0.00 71 1014.3
20220629005605 61 197 1.7 4.3 0.00 0.00 0.00 71 1014.3
20220629005106 60 214 0.9 2.6 0.00 0.00 0.00 72 1014.3
20220629004605 60 198 2.6 6.1 0.00 0.00 0.00 72 1014.4
20220629004105 60 197 2.6 6.1 0.00 0.00 0.00 73 1014.5
20220629003605 60 209 1.7 4.3 0.00 0.00 0.00 73 1014.5
20220629003106 60 205 1.7 4.3 0.00 0.00 0.00 74 1014.6
20220629002606 60 200 1.7 4.3 0.00 0.00 0.00 73 1014.6
20220629002105 60 199 2.6 4.3 0.00 0.00 0.00 73 1014.6
20220629001605 60 200 2.6 5.2 0.00 0.00 0.00 73 1014.7
20220629001106 60 205 1.7 4.3 0.00 0.00 0.00 73 1014.6
20220629000605 60 210 2.6 5.2 0.00 0.00 0.00 74 1014.6
20220629000105 60 218 1.7 4.3 0.00 0.00 0.00 73 1014.5
20220628235605 60 210 3.5 6.1 0.00 0.00 0.00 73 1014.6
20220628235105 61 208 1.7 5.2 0.00 0.00 0.00 72 1014.7
20220628234604 61 193 1.7 4.3 0.00 0.00 0.00 72 1014.5
20220628234105 61 201 2.6 4.3 0.00 0.00 0.00 72 1014.5
20220628233605 61 202 2.6 5.2 0.00 0.00 0.00 71 1014.5
20220628233106 62 178 2.6 5.2 0.00 0.00 0.00 69 1014.5
20220628232605 62 176 2.6 6.1 0.00 0.00 0.00 69 1014.6
20220628232105 63 209 3.5 8.7 0.00 0.00 0.00 67 1014.6
20220628231605 63 202 3.5 8.7 0.00 0.00 0.00 66 1014.5
20220628231108 64 164 2.6 5.2 0.00 0.00 0.00 67 1014.5
20220628230605 64 166 2.6 2.6 0.00 0.00 0.00 68 1014.5
20220628230105 64 143 2.6 2.6 0.00 0.00 0.00 69 1014.5
20220628225605 64 132 1.7 2.6 0.00 0.00 0.00 69 1014.3
20220628225106 64 132 1.7 2.6 0.00 0.00 0.00 70 1014.3
20220628224605 63 129 2.6 4.3 0.00 0.00 0.00 72 1014.3
20220628224105 63 115 2.6 4.3 0.00 0.00 0.00 72 1014.3
20220628223605 63 133 1.7 2.6 0.00 0.00 0.00 72 1014.3
20220628223106 63 82 1.7 2.6 0.00 0.00 0.00 73 1014.3
20220628222605 62 110 0.9 2.6 0.00 0.00 0.00 74 1014.3
20220628222105 62 105 1.7 2.6 0.00 0.00 0.00 74 1014.3
20220628221605 61 98 1.7 2.6 0.00 0.00 0.00 74 1014.3
20220628221106 61 102 1.7 2.6 0.00 0.00 0.00 75 1014.3
20220628220605 61 97 1.7 2.6 0.00 0.00 0.00 74 1014.3
20220628220105 61 111 1.7 2.6 0.00 0.00 0.00 74 1014.3
20220628215605 62 89 1.7 2.6 0.00 0.00 0.00 73 1014.3
20220628215106 62 90 1.7 2.6 0.00 0.00 0.00 73 1014.3
20220628214605 62 90 1.7 4.3 0.00 0.00 0.00 72 1014.3
20220628214105 63 56 2.6 4.3 0.00 0.00 0.00 71 1014.2
20220628213605 63 76 0.9 2.6 0.00 0.00 0.00 69 1014.2
20220628213105 63 98 1.7 2.6 0.00 0.00 0.00 69 1014.2
20220628212605 63 143 0.9 2.6 0.00 0.00 0.00 70 1014.2
20220628212104 63 142 1.7 2.6 0.00 0.00 0.00 70 1014.3
20220628211605 63 143 1.7 2.6 0.00 0.00 0.00 70 1014.3
20220628211106 63 146 0.9 2.6 0.00 0.00 0.00 71 1014.3
20220628210605 63 165 1.7 2.6 0.00 0.00 0.00 70 1014.3
20220628210105 63 147 1.7 2.6 0.00 0.00 0.00 70 1014.3
20220628205605 63 88 1.7 2.6 0.00 0.00 0.00 69 1014.3
20220628205105 64 70 1.7 2.6 0.00 0.00 0.00 69 1014.3
20220628204605 64 76 1.7 2.6 0.00 0.00 0.00 67 1014.3
20220628204105 65 81 1.7 2.6 0.00 0.00 0.00 66 1014.3
20220628203605 65 72 1.7 2.6 0.00 0.00 0.00 66 1014.2
20220628203105 65 67 0.9 2.6 0.00 0.00 0.00 65 1014.3
20220628202605 66 60 0.9 1.7 0.00 0.00 0.00 65 1014.3
20220628202104 66 60 0.9 1.7 0.00 0.00 0.00 65 1014.2
20220628201606 65 58 1.7 2.6 0.00 0.00 0.00 66 1014.2
20220628201105 65 65 1.7 2.6 0.00 0.00 0.00 67 1014.2
20220628200605 65 67 1.7 2.6 0.00 0.00 0.00 67 1014.2
20220628200105 65 66 2.6 2.6 0.00 0.00 0.00 67 1014.1
20220628195606 65 78 2.6 2.6 0.00 0.00 0.00 67 1014.0
20220628195105 66 78 2.6 4.3 0.00 0.00 0.00 67 1014.0
20220628194605 66 76 4.3 5.2 0.00 0.00 0.00 67 1014.0
20220628194105 66 67 4.3 5.2 0.00 0.00 0.00 65 1013.9
20220628193605 66 97 4.3 7.8 0.00 0.00 0.00 66 1014.0
20220628193105 66 69 4.3 7.8 0.00 0.00 0.00 65 1014.2
20220628192605 66 105 2.6 4.3 0.00 0.00 0.00 68 1014.0
20220628192105 64 144 4.3 5.2 0.00 0.00 0.00 69 1014.1
20220628191606 63 162 4.3 7.8 0.00 0.00 0.00 72 1014.2
20220628191104 62 146 6.1 8.7 0.00 0.00 0.00 73 1014.1
20220628190605 62 127 6.1 7.8 0.00 0.00 0.00 77 1014.1
20220628190105 61 111 6.1 8.7 0.00 0.00 0.00 79 1014.1
20220628185606 60 110 6.1 7.8 0.00 0.00 0.00 79 1014.1
20220628185104 60 100 5.2 6.1 0.00 0.00 0.00 79 1014.2
20220628184605 60 127 5.2 6.1 0.00 0.00 0.00 79 1014.3
20220628184104 60 121 5.2 7.8 0.00 0.00 0.00 79 1014.3
20220628183606 59 123 5.2 7.8 0.00 0.00 0.00 79 1014.3
20220628183105 59 109 5.2 7.8 0.00 0.00 0.00 79 1014.1
20220628182604 59 109 7.0 8.7 0.00 0.00 0.00 79 1013.9
20220628182105 60 103 6.1 8.7 0.00 0.00 0.00 78 1013.8
20220628181606 60 116 7.8 8.7 0.00 0.00 0.00 78 1013.8
20220628181104 60 111 5.2 7.8 0.00 0.00 0.00 78 1013.9
20220628180605 60 127 5.2 6.1 0.00 0.00 0.00 79 1013.9
20220628180105 59 139 2.6 4.3 0.00 0.00 0.00 79 1013.9
20220628175606 59 130 3.5 4.3 0.00 0.00 0.00 79 1013.8
20220628175104 59 120 5.2 6.1 0.00 0.00 0.00 79 1013.8
20220628174605 59 104 5.2 6.1 0.00 0.00 0.00 79 1013.7
20220628174105 59 89 6.1 8.7 0.00 0.00 0.00 79 1013.5
20220628173606 59 98 7.8 10.4 0.00 0.00 0.00 79 1013.4
20220628173105 59 87 6.1 8.7 0.00 0.00 0.00 78 1013.3
20220628172605 59 71 5.2 6.1 0.00 0.00 0.00 78 1013.4
20220628172105 60 113 5.2 6.1 0.00 0.00 0.00 78 1013.5
20220628171606 60 97 4.3 6.1 0.00 0.00 0.00 78 1013.5
20220628171105 59 112 5.2 7.8 0.00 0.00 0.00 78 1013.3
20220628170605 60 85 5.2 6.1 0.00 0.00 0.00 77 1013.3
20220628170105 60 91 5.2 7.8 0.00 0.00 0.00 77 1013.3
20220628165606 60 93 6.1 8.7 0.00 0.00 0.00 77 1013.3
20220628165105 60 89 7.0 8.7 0.00 0.00 0.00 77 1013.3
20220628164605 60 111 6.1 10.4 0.00 0.00 0.00 76 1013.4
20220628164104 61 104 8.7 10.4 0.00 0.00 0.00 74 1013.2
20220628163606 61 134 4.3 8.7 0.00 0.00 0.00 74 1013.2
20220628163105 61 114 3.5 5.2 0.00 0.00 0.00 74 1013.2
20220628162605 61 135 2.6 4.3 0.00 0.00 0.00 73 1013.2
20220628162105 61 161 3.5 5.2 0.00 0.00 0.00 74 1013.2
20220628161606 61 136 5.2 7.0 0.00 0.00 0.00 76 1013.2
20220628161104 61 146 2.6 5.2 0.00 0.00 0.00 75 1013.2
20220628160604 61 126 2.6 5.2 0.00 0.00 0.00 76 1013.1
20220628160104 61 141 3.5 7.8 0.00 0.00 0.00 77 1012.8
20220628155605 60 124 5.2 7.8 0.00 0.00 0.00 78 1012.7
20220628155105 60 128 6.1 8.7 0.00 0.00 0.00 79 1012.8
20220628154605 59 126 6.1 8.7 0.00 0.00 0.00 81 1012.7
20220628154105 59 130 6.1 10.4 0.00 0.00 0.00 81 1012.7
20220628153605 58 122 8.7 10.4 0.00 0.00 0.00 83 1012.7
20220628153105 58 121 9.6 11.3 0.00 0.00 0.00 84 1012.7
20220628152604 57 130 8.7 11.3 0.00 0.00 0.00 84 1012.7
20220628152105 57 123 7.8 10.4 0.00 0.00 0.00 84 1012.6
20220628151604 57 117 9.6 11.3 0.00 0.00 0.00 85 1012.5
20220628151105 57 106 7.8 10.4 0.00 0.00 0.00 85 1012.3
20220628150605 57 79 8.7 11.3 0.00 0.00 0.00 85 1012.2
20220628150105 57 72 7.0 8.7 0.00 0.00 0.00 85 1012.2
20220628145605 57 72 6.1 7.8 0.00 0.00 0.00 86 1012.2
20220628145105 57 88 2.6 5.2 0.00 0.00 0.00 86 1012.3
20220628144605 56 73 1.7 2.6 0.00 0.00 0.00 86 1012.2
20220628144105 56 89 0.9 2.6 0.00 0.00 0.00 86 1012.2
20220628143605 56 101 1.7 2.6 0.00 0.00 0.00 86 1012.0
20220628143105 56 77 2.6 4.3 0.00 0.00 0.00 86 1012.0
20220628142605 56 94 4.3 4.3 0.00 0.00 0.00 87 1012.0
20220628142105 56 84 3.5 5.2 0.00 0.00 0.00 87 1011.9
20220628141605 56 87 4.3 6.1 0.00 0.00 0.00 87 1011.9
20220628141105 56 89 2.6 2.6 0.00 0.00 0.00 87 1011.9
20220628140604 56 88 1.7 2.6 0.00 0.00 0.00 87 1011.7
20220628140105 56 65 1.7 2.6 0.00 0.00 0.00 87 1011.7
20220628135604 55 84 2.6 2.6 0.00 0.00 0.00 87 1011.7
20220628135105 55 95 1.7 2.6 0.00 0.00 0.00 87 1011.7
20220628134605 55 109 1.7 2.6 0.00 0.00 0.00 87 1011.6
20220628134104 55 109 0.9 2.6 0.00 0.00 0.00 87 1011.6
20220628133605 55 46 0.0 2.6 0.00 0.00 0.00 87 1011.4
20220628133104 55 14 1.7 2.6 0.00 0.00 0.00 86 1011.2
20220628132604 55 345 0.9 2.6 0.00 0.00 0.00 86 1011.1
20220628132104 55 307 1.7 2.6 0.00 0.00 0.00 86 1011.1
20220628131605 55 297 4.3 6.1 0.00 0.00 0.00 85 1010.9
20220628131105 55 338 4.3 6.1 0.00 0.00 0.00 85 1011.0
20220628130604 55 312 4.3 5.2 0.00 0.00 0.00 85 1011.0
20220628130104 55 307 4.3 5.2 0.00 0.00 0.00 84 1011.0
20220628125605 55 304 2.6 4.3 0.00 0.00 0.00 84 1010.8
20220628125104 55 293 1.7 2.6 0.00 0.00 0.00 84 1010.8
20220628124604 55 257 1.7 2.6 0.00 0.00 0.00 84 1010.7
20220628124104 55 295 0.9 2.6 0.00 0.00 0.00 83 1010.6
20220628123605 55 294 1.7 2.6 0.00 0.00 0.00 83 1010.5
20220628123105 55 279 1.7 2.6 0.00 0.00 0.00 82 1010.5
20220628122604 56 305 1.7 2.6 0.00 0.00 0.00 82 1010.5
20220628122105 56 223 0.0 2.6 0.00 0.00 0.00 82 1010.5
20220628121605 56 220 2.6 2.6 0.00 0.00 0.00 81 1010.5
20220628121104 56 211 1.7 4.3 0.00 0.00 0.00 81 1010.4
20220628120606 56 205 2.6 4.3 0.00 0.00 0.00 81 1010.4
20220628120105 56 201 2.6 5.2 0.00 0.00 0.00 81 1010.3
20220628115605 57 201 2.6 6.1 0.00 0.00 0.00 80 1010.2
20220628115104 57 190 4.3 5.2 0.00 0.00 0.00 79 1010.2
20220628114605 57 198 2.6 4.3 0.00 0.00 0.00 79 1010.2
20220628114104 57 204 2.6 4.3 0.00 0.00 0.00 79 1010.1
20220628113605 57 213 2.6 6.1 0.00 0.00 0.00 80 1010.1
20220628113106 57 230 2.6 5.2 0.00 0.00 0.00 80 1010.1
20220628112604 56 239 4.3 7.0 0.00 0.00 0.00 81 1010.1
20220628112105 56 235 4.3 5.2 0.00 0.00 0.00 81 1010.1
20220628111605 56 237 4.3 5.2 0.00 0.00 0.00 82 1010.1
20220628111105 56 231 4.3 6.1 0.00 0.00 0.00 82 1010.1
20220628110605 56 229 3.5 7.8 0.00 0.00 0.00 82 1010.1
20220628110105 56 206 4.3 6.1 0.00 0.00 0.00 82 1010.1
20220628105605 56 202 4.3 8.7 0.00 0.00 0.00 82 1010.1
20220628105105 56 203 5.2 10.4 0.00 0.00 0.00 82 1010.0
20220628104604 56 182 2.6 7.8 0.00 0.00 0.00 82 1010.0
20220628104104 56 176 2.6 7.8 0.00 0.00 0.00 81 1010.0
20220628103604 56 217 3.5 7.0 0.00 0.00 0.00 81 1009.9
20220628103105 56 195 2.6 8.7 0.00 0.00 0.00 81 1009.9
20220628102604 56 195 5.2 7.8 0.00 0.00 0.00 81 1009.9
20220628102105 56 193 5.2 8.7 0.00 0.00 0.00 82 1009.8
20220628101604 56 183 2.6 7.8 0.00 0.00 0.00 82 1009.7
20220628101104 56 207 5.2 10.4 0.00 0.00 0.00 83 1009.6
20220628100604 56 212 6.1 10.4 0.00 0.00 0.00 83 1009.6
20220628100104 56 217 5.2 11.3 0.00 0.00 0.00 84 1009.7
20220628095604 56 217 4.3 10.4 0.00 0.00 0.00 84 1009.8
20220628095105 55 217 4.3 10.4 0.00 0.00 0.00 84 1009.9
20220628094605 55 215 5.2 10.4 0.00 0.00 0.00 84 1009.8
20220628094104 56 209 6.1 10.4 0.00 0.00 0.00 84 1009.8
20220628093604 56 199 4.3 10.4 0.00 0.00 0.00 83 1009.8
20220628093104 56 205 5.2 10.4 0.00 0.00 0.00 83 1009.8
20220628092604 56 209 5.2 10.4 0.00 0.00 0.00 83 1009.9
20220628092104 56 208 4.3 10.4 0.00 0.00 0.00 83 1009.9
20220628091605 56 206 5.2 10.4 0.00 0.00 0.00 82 1009.9
20220628091104 56 203 5.2 10.4 0.00 0.00 0.00 82 1009.9
20220628090604 56 200 5.2 10.4 0.00 0.00 0.00 81 1010.0
20220628090104 56 194 4.3 8.7 0.00 0.00 0.00 81 1010.0
20220628085605 56 193 4.3 10.4 0.00 0.00 0.00 81 1010.0
20220628085104 56 204 4.3 10.4 0.00 0.00 0.00 80 1009.9
20220628084604 57 201 5.2 10.4 0.00 0.00 0.00 80 1010.0
20220628084104 57 199 5.2 8.7 0.00 0.00 0.00 79 1009.9
20220628083604 57 193 5.2 8.7 0.00 0.00 0.00 79 1009.8
20220628083104 57 195 3.5 8.7 0.00 0.00 0.00 78 1009.7
20220628082604 57 205 6.1 11.3 0.00 0.00 0.00 78 1009.6
20220628082104 57 210 6.1 11.3 0.00 0.00 0.00 77 1009.6
20220628081604 57 197 6.1 12.2 0.00 0.00 0.00 77 1009.6
20220628081104 57 202 7.0 13.0 0.00 0.00 0.00 77 1009.6
20220628080605 58 211 6.1 10.4 0.00 0.00 0.00 76 1009.6
20220628080105 58 208 3.5 7.8 0.00 0.00 0.00 76 1009.6
20220628075605 58 223 4.3 8.7 0.00 0.00 0.00 76 1009.6
20220628075104 57 215 4.3 8.7 0.00 0.00 0.00 76 1009.6
20220628074606 57 216 5.2 10.4 0.00 0.00 0.00 76 1009.5
20220628074104 57 203 3.5 8.7 0.00 0.00 0.00 76 1009.5
20220628073604 57 208 7.0 10.4 0.00 0.00 0.00 76 1009.5
20220628073104 57 197 5.2 8.7 0.00 0.00 0.00 76 1009.5
20220628072605 58 199 6.1 10.4 0.00 0.00 0.00 75 1009.5
20220628072104 58 198 4.3 8.7 0.00 0.00 0.00 75 1009.5
20220628071604 58 205 2.6 5.2 0.00 0.00 0.00 74 1009.5
20220628071104 58 208 4.3 7.8 0.00 0.00 0.00 74 1009.3
20220628070606 58 210 4.3 7.8 0.00 0.00 0.00 73 1009.4
20220628070105 59 186 4.3 10.4 0.00 0.00 0.00 73 1009.3
20220628065605 59 196 4.3 7.8 0.00 0.00 0.00 72 1009.2
20220628065105 59 201 4.3 7.8 0.00 0.00 0.00 71 1009.2
20220628064604 60 192 2.6 5.2 0.00 0.00 0.00 70 1009.1
20220628064104 60 201 3.5 10.4 0.00 0.00 0.00 69 1009.1
20220628063604 61 200 3.5 7.0 0.00 0.00 0.00 68 1009.2
20220628063104 62 181 3.5 5.2 0.00 0.00 0.00 66 1009.2
20220628062605 63 228 1.7 6.1 0.00 0.00 0.00 66 1009.0
20220628062104 64 173 1.7 5.2 0.00 0.00 0.00 66 1009.0
20220628061604 64 202 1.7 2.6 0.00 0.00 0.00 67 1009.0
20220628061104 64 231 1.7 2.6 0.00 0.00 0.00 66 1009.0
20220628060604 65 279 1.7 2.6 0.00 0.00 0.00 64 1009.0
20220628060104 66 282 2.6 4.3 0.00 0.00 0.00 63 1009.0
20220628055604 65 215 3.5 7.8 0.00 0.00 0.00 64 1008.8
20220628055105 65 225 4.3 7.8 0.00 0.00 0.00 65 1008.7
20220628054604 65 225 4.3 8.7 0.00 0.00 0.00 65 1008.6
20220628054103 64 214 5.2 11.3 0.00 0.00 0.00 65 1008.5
20220628053604 65 214 6.1 11.3 0.00 0.00 0.00 65 1008.5
20220628053104 65 190 5.2 11.3 0.00 0.00 0.00 63 1008.5
20220628052605 66 209 6.1 11.3 0.00 0.00 0.00 63 1008.5
20220628052105 67 207 4.3 8.7 0.00 0.00 0.00 61 1008.5
20220628051603 68 196 3.5 7.0 0.00 0.00 0.00 60 1008.5
20220628051104 67 234 5.2 10.4 0.00 0.00 0.00 61 1008.5
20220628050604 67 211 5.2 10.4 0.00 0.00 0.00 62 1008.5
20220628050105 66 233 4.3 8.7 0.00 0.00 0.00 64 1008.4
20220628045604 66 225 4.3 10.4 0.00 0.00 0.00 64 1008.4
20220628045104 65 217 4.3 11.3 0.00 0.00 0.00 65 1008.3
20220628044604 65 220 7.0 12.2 0.00 0.00 0.00 66 1008.2
20220628044104 64 228 6.1 12.2 0.00 0.00 0.00 67 1008.1
20220628043605 64 214 5.2 11.3 0.00 0.00 0.00 68 1008.1
20220628043105 63 213 6.1 10.4 0.00 0.00 0.00 69 1008.1
20220628042605 63 211 5.2 10.4 0.00 0.00 0.00 70 1008.0
20220628042106 62 218 5.2 10.4 0.00 0.00 0.00 70 1008.0
20220628041605 62 207 4.3 10.4 0.00 0.00 0.00 70 1008.0
20220628041105 63 198 7.8 11.3 0.00 0.00 0.00 68 1008.0
20220628040605 64 206 6.1 14.8 0.00 0.00 0.00 65 1008.0
20220628040106 65 206 6.1 12.2 0.00 0.00 0.00 65 1007.9
20220628035605 64 205 6.1 12.2 0.00 0.00 0.00 68 1007.6
20220628035105 64 213 5.2 11.3 0.00 0.00 0.00 69 1007.5
20220628034612 63 209 5.2 10.4 0.00 0.00 0.00 71 1007.5
20220628034106 63 200 2.6 6.1 0.00 0.00 0.00 72 1007.5
20220628033606 62 204 2.6 5.2 0.00 0.00 0.00 72 1007.5
20220628033105 62 207 2.6 5.2 0.00 0.00 0.00 73 1007.5
20220628032605 61 211 4.3 6.1 0.00 0.00 0.00 73 1007.4
20220628032106 61 210 5.2 10.4 0.00 0.00 0.00 73 1007.5
20220628031605 61 214 4.3 8.7 0.00 0.00 0.00 73 1007.5
20220628031105 61 206 7.0 11.3 0.00 0.00 0.00 74 1007.5
20220628030606 60 204 5.2 10.4 0.00 0.00 0.00 74 1007.4
20220628030106 60 211 6.1 11.3 0.00 0.00 0.00 75 1007.4